Regional Weather Roundup
Issued by NWS

Home | Current Version | Previous Version | Graphics & Text | Print | Product List | Glossary On
Versions: 1 2 3 4 5 6 7 8 9 10 11 12 13 14 15 16 17 18 19 20 21 22 23 24 25 26 27 28 29 30 31 32 33 34 35 36 37 38 39 40 41 42 43 44 45 46 47 48 49 50
000
ASUS43 KLMK 291910
RWRKY
KENTUCKY REGIONAL WEATHER ROUNDUP
NATIONAL WEATHER SERVICE LOUISVILLE KY
300 PM EDT FRI MAY 29 2015

NOTE "FAIR" INDICATES FEW OR NO CLOUDS BELOW 12,000 FEET
WITH NO SIGNIFICANT WEATHER AND/OR OBSTRUCTIONS TO VISIBILITY.

KYZ001>023-026-027-061>063-070>075-292000-
WESTERN AND SOUTH CENTRAL KENTUCKY

CITY           SKY/WX    TMP DP  RH WIND       PRES   REMARKS
PADUCAH        PTSUNNY   84  69  60 SE9       30.06F
HENDERSON      PTSUNNY   81  66  61 S9        30.06F
OWENSBORO      PTSUNNY   73  71  93 W5        30.10F
HOPKINSVILLE   MOSUNNY   80  68  66 SW10      30.10F
BOWLING GREEN  CLOUDY    80  67  64 S9        30.13F
GLASGOW        PTSUNNY   80  65  59 SW8       30.14F
$$

KYZ024-025-028>034-038-045-046-053-292000-
NORTH CENTRAL KENTUCKY

CITY           SKY/WX    TMP DP  RH WIND       PRES   REMARKS
LOUISVILLE/SDF PTSUNNY   81  65  58 S13G23    30.10F
LOUISVILLE/LOU MOSUNNY   80  65  59 S13       30.11F
FORT KNOX      PTSUNNY   79  67  68 S12       30.11F
$$

KYZ035>037-039>044-047>052-055>060-089>105-292000-
NORTHEAST KENTUCKY

CITY           SKY/WX    TMP DP  RH WIND       PRES   REMARKS
LEXINGTON      PTSUNNY   72  68  87 CALM      30.16F
COVINGTON      PTSUNNY   82  65  56 S13       30.13F
FRANKFORT      MOSUNNY   81  67  62 S13G20    30.13F
$$

KYZ054-064>069-076>088-106>120-292000-
SOUTHEAST KENTUCKY

CITY           SKY/WX    TMP DP  RH WIND       PRES   REMARKS
JACKSON        MOSUNNY   78  67  68 CALM      30.19F
LONDON         MOSUNNY   81  60  48 W7        30.18F
SOMERSET       LGT RAIN  72  64  78 W13G18    30.18F
MIDDLESBORO    RAIN      76  69  79 NE6       30.19F
MONTICELLO     PTCLDY    73  70  91 SE5       30.21F
$$




USA.gov is the U.S. government's official web portal to all federal, state and local government web resources and services.